Tracking 18843 objects as of 21-November-2017
HD Live streaming from Space Station
objects crossing your sky now

FENGYUN 1C DEB

Track FENGYUN 1C DEB now!
10-day predictions


NORAD ID: 30982
Int'l Code: 1999-025BBY
Perigee: 610.2 km
Apogee: 887.0 km
Inclination: 98.3 °
Period: 99.6 minutes
Semi major axis: 7119 km
RCS: 0.0096 m2 (small)
Launch date: May 10, 1999
Source: People's Republic of China (PRC)
Launch site: Taiyaun Space Center, China (TSC)

Note: This is SATELLITE DEBRIS
aabbcc
Your satellite tracking list
Your tracking list is empty




NASA's NSSDC Master Catalog

Two Line Element Set (TLE):
1 30982U 99025BBY 17324.33446958  .00000147  00000-0  45921-4 0  9993
2 30982  98.3294 357.6629 0194390 300.3179 115.2230 14.45175424564473
Source of the keplerian elements: AFSPC